User: anonymous   Login
Location: Pedholt
(56.0260°N, 10.2097°E)
Time: 06:38:12
(UTC+00:00)
Language:

ARIANE 5 R/B - Orbit

View from above orbital plane
View from above orbital plane
View from above satellite
View from above satellite

Ground track
Ground track

The orbit data is extracted from the following two-line orbital elements,

1 27387U 02009B   20273.44064292 -.00000013 +00000-0 +10832-4 0  9996
2 27387 098.6196 227.0490 0032510 170.8064 189.3724 14.36000960973753
Epoch (UTC): 29 September 2020 10:34:31
Eccentricity: 0.0032510
inclination: 98.6196°
perigee height: 748 km
apogee height: 795 km
right ascension of ascending node: 227.0490°
argument of perigee: 170.8064°
revolutions per day: 14.36000960
mean anomaly at epoch: 189.3724°
orbit number at epoch: 97375

The dashed part of the orbit path shows where the satellite is in the earth's shadow,  

DLR